Showing default

YAOGAN-39 04C, 58145

Orbit data source: Space-Track

YAOGAN-39 04C, 58145 is a payload satellite owned by PLA GAD (CN) in LEO that was launched on Mon, 23 Oct 2023 UTC via a CHANG ZHENG 2D launch vehicle from the Xichang Space Center, China (XSC). Payloads include a variety of satellites, spacecraft, and rockets equipped with specific instruments for various scientific and technological missions. These include communications satellites like Starlink; space stations such as the ISS; scientific satellites like the Hubble; Earth observation satellites from companies like Planet Labs, Umbra, and HawkEye 360; GPS; miniature CubeSats for education and research; and military/defense satellites.

Loading next visibility...
YAOGAN-39 04C details
Identifier
58145, 2023-163E
Orbit
LEO
Last TLE update6 hours ago
Origin
Flag of CNPLA GAD (CN / PRC)
ManufacturerDFH
MissionOperational Defense Sigint
Bus & MotorUnknown
Mass~300 kg wet, ~300 kg dry
Launch date (UTC)
2023-10-23 (1 year ago)
Launch vehicle
CHANG ZHENG 2D
Launch site
Xichang Space Center, China (XSC)
Object type
Payload
Rocket body
Debris
Shape & HBRBox + 2 Pan, 5 m
Radar Cross Section11.063 m², Large (>1 m²)

Expand to show TLE details & history

TLE from 6 hours ago
0 YAOGAN-39 04C
1 58145U 23163E   24356.46777631  .00017595  00000-0  72941-3 0  9992
2 58145  34.9926 157.7683 0002261  24.7727 335.3096 15.23034006 64783
Epoch: 2024-12-21T11:13Z
Definitive object data (Epoch: 2024-12-21T11:13:35.873Z)
Latitude
Longitude-101.14968°
Altitude494.19 km
Speed7.621 km/s
True Right ascension10h 31m 04s
True Declination0° 00' 00"
Sunlit
Object was in daylight at TLE epoch
Visualization TLE readout
Latitude-15.42437°
Longitude-125.84421°
Altitude497.927 km
Speed7.618 km/s
Apparent Right ascension07h 01m 53s
Apparent Declination-31° 16' 59"
Sunlit
Object is in full shadow
Visualization observer readout
Local Sidereal Time16:26:34
Azimuth273.089° WNW
Elevation-57.546°
Doppler factor1
Orbital elements
Apogee altitude501.502 km
Perigee altitude498.392 km
Semi-major axis6,878.084 km
Eccentricity0.0002261
Inclination34.9926°
RAAN157.7683°
Arg. of periapsis24.7727°
True anomaly335.29877°
Mean anomaly335.3096°
Eccentric anomaly335.30419°
Mean motion3.80489 °/min
BSTAR0.00072941
Orbital period94.62 mins
Loading maneuver chart data...
Loading historical data...
Loading historical data...
Loading historical data...
Loading historical data...
Loading historical data...
Loading historical data...
Loading historical data...

YAOGAN-39 04C Visibility forecast

Observer location: undefined°, undefined

Span
Click to sort rows by Start time (UTC) header in descending order
Start Az.
Max El. time (UTC)
Max El. Az.
Max El.
End time (UTC)
End Az.
7 mins2024-12-21 17:52:57.876Z253.267° W2024-12-21 17:56:57.876Z167.39° S30.153°2024-12-21 17:59:57.876Z117.81° SE
5 mins2024-12-22 15:50:57.876Z224.301° SW2024-12-22 15:52:57.876Z176.526° S28.844°2024-12-22 15:55:57.876Z110.092° ESE
|